Location: Kershaw
(34.5481°N, 80.5823°W)
Time: 20:15:04
(UTC+00:00)

Transit 2A - Pass Details

Date: 12 October 2022
Orbit: 598 x 959 km, 66.7° (Epoch: 03 December)

Event Time Altitude Azimuth Distance (km) Brightness Sun altitude
Rises 02:06:15 0° 219° (SW) 2,934 - -40.0°
Reaches altitude 10° 02:08:38 10° 226° (SW) 1,991 - -40.5°
Maximum altitude 02:12:54 46° 299° (WNW) 821 - -41.3°
Drops below altitude 10° 02:17:03 10° 14° (NNE) 1,939 - -42.1°
Sets 02:19:22 0° 20° (NNE) 2,848 - -42.5°
